Date String (YYYY-MM-DD hh:mm:ss) UTC,Instrument flags,Ambient pressure (hPa),Sample flow (lpm),Bypass flow (lpm),Sample temperature (°C),Ambient temperature (°C),ASC tube jacket temperature (°C),LED temperature (°C),Box temperature (°C),Sample RH (%),Span deviation,Mass concentration (μg/m³),Mass concentration (μg/m³),Mass concentration (μg/m³)
DateTimeUTC,F1_M11,P_M11,Q1_M11,Q2_M11,T1_M11,T2_M11,T3_M11,T4_M11,T5_M11,U1_M11,ZSPAN_M11,X0_M11,X2_M11,X1_M11
2021-11-19 05:00:00,,0826.1,5.00,0.00,22.5,21.7,00.0,31.7,24.2,09.1,0000.0,0027.86,0008.23,0005.98
2021-11-19 05:01:00,,0826.2,5.01,0.00,22.5,21.7,00.0,31.7,24.2,09.1,0000.0,0026.94,0008.22,0005.99
2021-11-19 05:02:00,,0826.0,5.01,0.00,22.5,21.6,00.0,31.7,24.1,09.1,0000.0,0026.70,0008.22,0006.00
2021-11-19 05:03:00,,0826.0,4.99,0.00,22.4,21.6,00.0,31.7,24.1,09.1,0000.0,0026.09,0008.18,0006.00
2021-11-19 05:04:00,,0825.9,5.01,0.00,22.4,21.5,00.0,31.6,24.1,09.1,0000.0,0025.42,0008.25,0006.03
2021-11-19 05:05:00,,0825.8,4.99,0.00,22.4,21.5,00.0,31.6,24.0,09.1,0000.0,0025.68,0008.25,0006.06
2021-11-19 05:06:00,,0825.8,5.00,0.00,22.3,21.5,00.0,31.6,24.0,09.1,0001.6,0025.41,0008.26,0006.10
2021-11-19 05:07:00,,0826.0,5.01,0.00,22.3,21.5,00.0,31.6,24.0,09.2,0004.4,0024.98,0008.30,0006.13
2021-11-19 05:08:00,,0825.7,4.99,0.00,22.3,21.5,00.0,31.5,24.1,09.2,0004.8,0024.84,0008.30,0006.15
2021-11-19 05:09:00,,0826.0,5.01,0.00,22.3,21.5,00.0,31.5,24.1,09.0,0004.9,0024.55,0008.33,0006.16
2021-11-19 05:10:00,,0826.1,5.00,0.00,22.3,21.5,00.0,31.5,24.0,08.6,0004.6,0024.92,0008.31,0006.16
2021-11-19 05:11:00,,0826.0,5.00,0.00,22.3,21.5,00.0,31.5,24.0,08.9,0004.9,0024.88,0008.30,0006.18
2021-11-19 05:12:00,,0825.8,5.00,0.00,22.2,21.5,00.0,31.5,23.9,09.2,0005.2,0026.33,0008.37,0006.23
2021-11-19 05:13:00,,0825.8,5.00,0.00,22.2,21.4,00.0,31.4,23.9,09.3,0005.4,0026.48,0008.41,0006.29
2021-11-19 05:14:00,,0826.0,5.00,0.00,22.2,21.4,00.0,31.4,23.9,09.4,0005.4,0027.78,0008.56,0006.35
2021-11-19 05:15:00,,0826.0,5.01,0.00,22.2,21.3,00.0,31.4,23.8,09.4,0005.4,0029.58,0008.64,0006.40
2021-11-19 05:16:00,,0826.0,4.99,0.00,22.1,21.3,00.0,31.4,23.8,09.4,0005.5,0029.10,0008.73,0006.44
2021-11-19 05:17:00,,0826.0,5.01,0.00,22.1,21.2,00.0,31.3,23.7,09.4,0005.7,0028.86,0008.80,0006.47
2021-11-19 05:18:00,,0826.0,4.99,0.00,22.1,21.2,00.0,31.3,23.7,09.4,0005.8,0028.46,0008.84,0006.49
2021-11-19 05:19:00,,0825.7,5.01,0.00,22.1,21.2,00.0,31.3,23.8,09.4,0005.7,0028.48,0008.84,0006.52
2021-11-19 05:20:00,,0825.6,5.00,0.00,22.0,21.2,00.0,31.3,23.7,09.4,0005.5,0030.68,0008.88,0006.56
2021-11-19 05:21:00,,0825.7,5.00,0.00,22.0,21.2,00.0,31.3,23.7,09.4,0005.3,0032.77,0009.07,0006.64
2021-11-19 05:22:00,,0825.7,5.00,0.00,22.0,21.1,00.0,31.2,23.6,09.4,0005.2,0032.80,0009.18,0006.72
2021-11-19 05:23:00,,0825.7,5.00,0.00,21.9,21.1,00.0,31.2,23.6,09.3,0004.9,0032.88,0009.25,0006.75
2021-11-19 05:24:00,,0825.6,5.01,0.00,21.9,21.1,00.0,31.2,23.5,09.1,0004.3,0033.60,0009.32,0006.77
2021-11-19 05:25:00,,0825.7,4.99,0.00,21.9,21.0,00.0,31.2,23.5,08.9,0003.8,0033.47,0009.26,0006.76
2021-11-19 05:26:00,,0825.7,5.00,0.00,21.8,21.0,00.0,31.1,23.4,08.9,0003.5,0032.01,0009.22,0006.76
2021-11-19 05:27:00,,0825.6,4.99,0.00,21.8,21.0,00.0,31.1,23.4,08.9,0002.6,0031.67,0009.17,0006.74
2021-11-19 05:28:00,,0825.6,5.02,0.00,21.8,21.0,00.0,31.1,23.4,08.9,0002.6,0030.67,0009.14,0006.74
2021-11-19 05:29:00,,0825.6,4.99,0.00,21.8,21.0,00.0,31.1,23.5,09.2,0002.5,0029.86,0009.07,0006.74
2021-11-19 05:30:00,,0825.6,5.01,0.00,21.8,21.0,00.0,31.0,23.6,08.7,0002.5,0029.47,0009.04,0006.72
2021-11-19 05:31:00,,0825.6,4.99,0.00,21.8,21.1,00.0,31.0,23.5,08.5,0002.7,0027.43,0008.94,0006.64
2021-11-19 05:32:00,,0825.6,5.00,0.00,21.8,21.0,00.0,31.0,23.5,08.5,0003.1,0025.23,0008.74,0006.56
2021-11-19 05:33:00,,0825.6,5.00,0.00,21.7,21.0,00.0,31.0,23.4,08.7,0003.9,0025.07,0008.67,0006.50
2021-11-19 05:34:00,,0825.5,4.99,0.00,21.7,20.9,00.0,31.0,23.4,08.8,0004.4,0024.88,0008.54,0006.45
2021-11-19 05:35:00,,0825.6,5.01,0.00,21.7,20.9,00.0,30.9,23.3,09.0,0005.1,0024.36,0008.53,0006.42
2021-11-19 05:36:00,,0825.5,4.99,0.00,21.7,20.9,00.0,30.9,23.4,08.3,0005.0,0023.31,0008.55,0006.40
2021-11-19 05:37:00,,0825.5,5.00,0.00,21.7,20.9,00.0,30.9,23.4,08.7,0004.6,0023.95,0008.47,0006.34
2021-11-19 05:38:00,,0825.5,5.00,0.00,21.7,20.9,00.0,30.9,23.4,08.9,0004.5,0024.81,0008.48,0006.36
2021-11-19 05:39:00,,0825.6,5.00,0.00,21.7,20.9,00.0,30.9,23.3,08.9,0004.7,0024.88,0008.49,0006.37
2021-11-19 05:40:00,,0825.5,5.01,0.00,21.6,20.9,00.0,30.9,23.3,09.2,0004.9,0025.50,0008.59,0006.38
2021-11-19 05:41:00,,0825.6,5.01,0.00,21.6,20.8,00.0,30.8,23.3,09.3,0006.2,0025.45,0008.63,0006.43
2021-11-19 05:42:00,,0825.4,4.99,0.00,21.6,20.8,00.0,30.8,23.2,09.2,0006.5,0025.81,0008.72,0006.52
2021-11-19 05:43:00,,0825.4,5.00,0.00,21.6,20.8,00.0,30.8,23.2,08.9,0007.3,0026.17,0008.80,0006.58
2021-11-19 05:44:00,,0825.4,4.99,0.00,21.6,20.8,00.0,30.8,23.2,08.3,0006.7,0027.02,0008.72,0006.56
2021-11-19 05:45:00,,0825.4,5.00,0.00,21.7,21.4,00.0,30.8,23.4,07.8,0005.2,0025.59,0008.59,0006.44
2021-11-19 05:46:00,,0825.4,5.01,0.00,21.8,22.2,00.0,30.9,23.7,07.9,0004.6,0024.54,0008.39,0006.37
2021-11-19 05:47:00,,0825.4,4.99,0.00,21.9,22.7,00.0,30.9,23.9,07.9,0005.6,0024.74,0008.23,0006.31
2021-11-19 05:48:00,,0825.4,5.01,0.00,22.0,22.5,00.0,30.9,24.0,07.3,0005.6,0024.78,0008.15,0006.24
2021-11-19 05:49:00,,0825.3,5.00,0.00,22.0,22.3,00.0,30.9,24.0,07.0,0005.0,0023.47,0008.01,0006.10
2021-11-19 05:50:00,,0825.4,4.99,0.00,22.0,22.1,00.0,30.9,23.9,06.3,0005.1,0022.51,0007.67,0005.89
2021-11-19 05:51:00,,0825.3,5.00,0.00,22.0,22.0,00.0,31.0,23.9,06.3,0004.9,0022.95,0007.34,0005.63
2021-11-19 05:52:00,,0825.3,5.00,0.00,22.0,21.8,00.0,31.0,23.9,06.9,0000.6,0023.08,0007.07,0005.42
2021-11-19 05:53:00,,0825.3,4.99,0.00,22.0,21.8,00.0,31.0,23.9,07.2,0000.0,0024.79,0006.86,0005.24
2021-11-19 05:54:00,,0825.3,5.00,0.00,22.0,21.7,00.0,31.0,23.9,07.8,0000.0,0025.63,0006.71,0005.11
2021-11-19 05:55:00,,0825.3,5.01,0.00,22.1,21.7,00.0,31.0,23.9,07.8,0000.0,0023.73,0006.68,0005.05
2021-11-19 05:56:00,,0825.3,4.99,0.00,22.1,21.7,00.0,31.0,23.9,07.8,0000.0,0023.65,0006.74,0005.09
2021-11-19 05:57:00,,0825.3,5.01,0.00,22.1,21.7,00.0,31.0,24.0,07.9,0000.0,0025.28,0006.75,0005.07
2021-11-19 05:58:00,,0825.3,4.98,0.00,22.1,21.7,00.0,31.0,24.0,07.7,0000.0,0025.80,0006.82,0005.05
2021-11-19 05:59:00,,0825.3,5.02,0.00,22.1,21.7,00.0,31.1,24.0,07.7,0000.0,0024.61,0006.77,0005.06
